"Pseudo-MPEC" for C3RKEH1

Created 2023 Sep 27 1:22:03 UT using Find_Orb

Click here for an explanation of pseudo-MPECs

 
 Astrometry: 
     C3RKEH1*1C2023 09 14.16694116 17 17.180+39 00 11.90   ~9E57 17.50GVNEOCP703
     C3RKEH1 1C2023 09 14.17234716 17 15.690+39 00 10.70   ~9E57 18.61GVNEOCP703

Station data:
(703) Catalina Sky Survey  (N32.417003 W110.732640)  US/Arizona.  Observer E.
   J. Christensen. 0.68 m Schmidt + 10K CCD.

Orbital elements:  C3RKEH1
   Perihelion 2023 Nov 13.08029 +/- 23.4 TT =  1:55:36 (JD 2460261.58029)
Epoch 2023 Sep 14.0 TT = JDT 2460201.5   Earth MOID: 0.2681   Ma: 0.0711
M 306.83883750 +/- 36               (J2000 ecliptic)             AutoNEOCP
n   0.88483535 +/- 0.516            Peri.  164.42751 +/- 40
a   1.07455274 +/- 0.418            Node   281.84871 +/- 50
e   0.4294187 +/- 0.248             Incl.   19.28911 +/- 22
P   1.11/406.85d           H 17.77  G  0.15   U 12.3  SR
q 0.61311965 +/- 0.141    Q 1.53598584 +/- 22
From 2 observations 2023 Sept. 14 (7.8 min); mean residual 0".01
Residuals in arcseconds: 
230914 703  .01+  .01-    230914 703  .01+  .01-    

Ephemerides (geocentric):
Date (UTC) HH   RA             Dec           delta  r     elong  mag " sig PA
---- --------  ------------   ------------  ------ ------ -----  --- --------
2023 09 27 01  15 19 30.997   +37 25 12.98  .34805 .86992  58.0 18.9  28d 114
2023 09 27 02  15 19 19.483   +37 24 39.06  .34811 .86959  58.0 18.9  28d 114
2023 09 27 03  15 19 07.965   +37 24 05.02  .34817 .86927  57.9 18.9  28d 114
2023 09 27 04  15 18 56.445   +37 23 30.84  .34823 .86894  57.9 18.9  28d 114
2023 09 27 05  15 18 44.922   +37 22 56.54  .34830 .86861  57.8 18.9  28d 114
2023 09 27 06  15 18 33.396   +37 22 22.11  .34836 .86828  57.8 18.9  28d 114
2023 09 27 07  15 18 21.867   +37 21 47.55  .34842 .86795  57.7 18.9  28d 114
2023 09 27 08  15 18 10.335   +37 21 12.87  .34848 .86762  57.7 18.9  28d 114
2023 09 27 09  15 17 58.799   +37 20 38.05  .34854 .86729  57.6 18.9  28d 114
2023 09 27 10  15 17 47.261   +37 20 03.10  .34861 .86696  57.6 18.9  28d 114
2023 09 27 11  15 17 35.720   +37 19 28.02  .34867 .86664  57.5 18.9  28d 114
2023 09 27 12  15 17 24.176   +37 18 52.81  .34873 .86631  57.5 18.9  28d 114
2023 09 27 13  15 17 12.629   +37 18 17.47  .34879 .86598  57.4 18.9  28d 114
2023 09 27 14  15 17 01.079   +37 17 42.00  .34886 .86565  57.4 18.9  28d 114
2023 09 27 15  15 16 49.525   +37 17 06.40  .34892 .86532  57.3 18.9  28d 115
2023 09 27 16  15 16 37.969   +37 16 30.66  .34898 .86499  57.3 18.9  28d 115
2023 09 27 17  15 16 26.410   +37 15 54.79  .34904 .86466  57.2 18.9  28d 115
2023 09 27 18  15 16 14.848   +37 15 18.79  .34911 .86434  57.2 19.0  28d 115
2023 09 27 19  15 16 03.283   +37 14 42.66  .34917 .86401  57.1 19.0  28d 115
2023 09 27 20  15 15 51.715   +37 14 06.39  .34923 .86368  57.1 19.0  28d 115
2023 09 27 21  15 15 40.144   +37 13 29.99  .34929 .86335  57.0 19.0  28d 115
2023 09 27 22  15 15 28.570   +37 12 53.45  .34936 .86302  57.0 19.0  28d 115
2023 09 27 23  15 15 16.993   +37 12 16.78  .34942 .86269  56.9 19.0  28d 115
2023 09 28 00  15 15 05.413   +37 11 39.97  .34948 .86236  56.9 19.0  28d 115
2023 09 28 01  15 14 53.830   +37 11 03.03  .34955 .86204  56.8 19.0  28d 115
2023 09 28 02  15 14 42.244   +37 10 25.96  .34961 .86171  56.8 19.0  28d 115
2023 09 28 03  15 14 30.655   +37 09 48.74  .34967 .86138  56.7 19.0  28d 115
2023 09 28 04  15 14 19.063   +37 09 11.40  .34974 .86105  56.7 19.0  28d 115
2023 09 28 05  15 14 07.468   +37 08 33.91  .34980 .86072  56.6 19.0  28d 115
2023 09 28 06  15 13 55.870   +37 07 56.29  .34986 .86039  56.6 19.0  28d 115
2023 09 28 07  15 13 44.270   +37 07 18.53  .34992 .86006  56.5 19.0  28d 115
2023 09 28 08  15 13 32.666   +37 06 40.63  .34999 .85974  56.5 19.0  28d 115
2023 09 28 09  15 13 21.059   +37 06 02.59  .35005 .85941  56.4 19.0  29d 115
2023 09 28 10  15 13 09.450   +37 05 24.42  .35012 .85908  56.4 19.0  29d 115
2023 09 28 11  15 12 57.837   +37 04 46.11  .35018 .85875  56.3 19.0  29d 115
2023 09 28 12  15 12 46.222   +37 04 07.66  .35024 .85842  56.2 19.0  29d 115
2023 09 28 13  15 12 34.604   +37 03 29.06  .35031 .85809  56.2 19.0  29d 115
2023 09 28 14  15 12 22.982   +37 02 50.33  .35037 .85777  56.1 19.0  29d 115
2023 09 28 15  15 12 11.358   +37 02 11.46  .35043 .85744  56.1 19.0  29d 115
2023 09 28 16  15 11 59.731   +37 01 32.45  .35050 .85711  56.0 19.0  29d 115
2023 09 28 17  15 11 48.101   +37 00 53.30  .35056 .85678  56.0 19.0  29d 115
2023 09 28 18  15 11 36.468   +37 00 14.00  .35062 .85645  55.9 19.0  29d 115
2023 09 28 19  15 11 24.832   +36 59 34.57  .35069 .85612  55.9 19.0  29d 115
2023 09 28 20  15 11 13.194   +36 58 54.99  .35075 .85580  55.8 19.0  29d 115
2023 09 28 21  15 11 01.552   +36 58 15.27  .35082 .85547  55.8 19.0  29d 115
2023 09 28 22  15 10 49.908   +36 57 35.41  .35088 .85514  55.7 19.0  29d 115
2023 09 28 23  15 10 38.260   +36 56 55.40  .35094 .85481  55.7 19.0  29d 115
2023 09 29 00  15 10 26.610   +36 56 15.25  .35101 .85448  55.6 19.0  29d 115